Sturgeon Bay, WI

1:57 PM CST on February 25, 2017 (GMT -0600)
Door County Cherryland

Weather History for KSUE - March, 2014

Change the Weather History Date:

Thursday, March 6, 2014

  Actual Average Record
Temperature  
Mean Temperature 16 °F -  
Max Temperature 21 °F 35 °F 55 °F (1983)
Min Temperature 10 °F 16 °F -15 °F (1920)
Degree Days  
Heating Degree Days 50    
Moisture  
Dew Point 10 °F    
Average Humidity 73    
Maximum Humidity 86    
Minimum Humidity 58    
Precipitation  
Precipitation 0.00 in - - ()
Sea Level Pressure  
Sea Level Pressure 30.27 in    
Wind  
Wind Speed 11 mph (SSE)    
Max Wind Speed 17 mph    
Max Gust Speed 24 mph    
Visibility 8 miles    
Events      
Averages and records for this station are not official NWS values.
T = Trace of Precipitation, MM = Missing Value Source: NWS Daily Summary

Daily Weather History Graph

Daily Weather History Graph

Search for Another Location

Airport or City:

Trip Planner

Search our weather history database for the weather conditions in past years. The results will help you decide how hot, cold, wet, or windy it might be!

Date:

Astronomy

Mar. 06, 2014 Rise Set
Actual Time 6:18 AM CST 5:44 PM CST
Civil Twilight 5:49 AM CST 6:13 PM CST
Nautical Twilight 5:15 AM CST 6:47 PM CST
Astronomical Twilight 4:41 AM CST 7:21 PM CST
Moon 9:11 AM CST (3/6) No Moon Set
Length of Visible Light 12h 23m
Length of Day
11h 25m
Waxing Crescent, 32% of the Moon is Illuminated
Mar 6
Waxing Crescent
Mar 8
First Quarter
Mar 16
Full
Mar 23
Last Quarter
Mar 30
New

Hourly Weather History & Observations

Time (CST) Temp. Windchill Dew Point Humidity Pressure Visibility Wind Dir Wind Speed Gust Speed Precip Events Conditions
12:15 AM 15.8 °F 2.1 °F 6.8 °F 68% 30.46 in 10.0 mi SSE 12.7 mph 17.3 mph N/A   Clear
12:35 AM 15.8 °F 4.2 °F 5.0 °F 62% 30.47 in 10.0 mi SSE 9.2 mph - N/A   Clear
12:55 AM 15.8 °F 3.4 °F 5.0 °F 62% 30.48 in 10.0 mi SSE 10.4 mph - N/A   Clear
1:15 AM 14.0 °F 2.9 °F 3.2 °F 62% 30.48 in 10.0 mi SSE 8.1 mph - N/A   Clear
1:35 AM 14.0 °F 2.0 °F 5.0 °F 67% 30.47 in 10.0 mi SSE 9.2 mph - N/A   Clear
1:55 AM 14.0 °F 5.1 °F 3.2 °F 62% 30.47 in 10.0 mi SE 5.8 mph - N/A   Clear
2:15 AM 12.2 °F 2.9 °F 5.0 °F 73% 30.47 in 10.0 mi SSE 5.8 mph - N/A   Clear
2:35 AM 12.2 °F 2.9 °F 5.0 °F 73% 30.48 in 10.0 mi SSE 5.8 mph - N/A   Clear
2:55 AM 12.2 °F 2.9 °F 5.0 °F 73% 30.47 in 10.0 mi SSE 5.8 mph - N/A   Clear
3:15 AM 12.2 °F -0.2 °F 5.0 °F 73% 30.45 in 10.0 mi SE 9.2 mph - N/A   Clear
3:35 AM 12.2 °F -1.0 °F 6.8 °F 79% 30.44 in 10.0 mi SSE 10.4 mph - N/A   Partly Cloudy
3:55 AM 12.2 °F -1.8 °F 6.8 °F 79% 30.44 in 10.0 mi SSE 11.5 mph - N/A   Mostly Cloudy
4:15 AM 12.2 °F -0.2 °F 6.8 °F 79% 30.44 in 10.0 mi SSE 9.2 mph - N/A   Overcast
4:35 AM 12.2 °F 0.7 °F 6.8 °F 79% 30.44 in 8.0 mi SE 8.1 mph - N/A   Overcast
4:55 AM 12.2 °F 4.3 °F 6.8 °F 79% 30.44 in 8.0 mi South 4.6 mph - N/A   Overcast
5:15 AM 12.2 °F 1.7 °F 6.8 °F 79% 30.44 in 10.0 mi South 6.9 mph - N/A   Overcast
5:35 AM 10.4 °F -1.5 °F 6.8 °F 85% 30.42 in 10.0 mi SSE 8.1 mph - N/A   Mostly Cloudy
5:55 AM 10.4 °F -1.5 °F 6.8 °F 85% 30.41 in 10.0 mi SSE 8.1 mph - N/A   Scattered Clouds
6:15 AM 10.4 °F -1.5 °F 6.8 °F 85% 30.40 in 10.0 mi SSE 8.1 mph - N/A   Partly Cloudy
6:35 AM 10.4 °F -1.5 °F 6.8 °F 85% 30.41 in 10.0 mi SSE 8.1 mph - N/A   Partly Cloudy
6:55 AM 12.2 °F -0.2 °F 8.6 °F 85% 30.40 in 10.0 mi SSE 9.2 mph - N/A   Partly Cloudy
7:15 AM 12.2 °F -0.2 °F 8.6 °F 85% 30.40 in 10.0 mi SSE 9.2 mph - N/A   Clear
7:35 AM 14.0 °F -0.2 °F 8.6 °F 79% 30.40 in 10.0 mi SSE 12.7 mph - N/A   Clear
7:55 AM 15.8 °F 2.1 °F 10.4 °F 79% 30.39 in 9.0 mi SSE 12.7 mph 18.4 mph N/A   Clear
8:15 AM 15.8 °F 3.4 °F 10.4 °F 79% 30.39 in 1.0 mi SSE 10.4 mph 19.6 mph N/A   Clear
8:35 AM 17.6 °F 4.3 °F 10.4 °F 73% 30.39 in 6.0 mi South 12.7 mph 17.3 mph N/A   Clear
8:55 AM 17.6 °F 3.7 °F 10.4 °F 73% 30.38 in 1.8 mi South 13.8 mph - N/A   Clear
9:15 AM 17.6 °F 4.3 °F 10.4 °F 73% 30.38 in 1.8 mi South 12.7 mph - N/A   Clear
9:35 AM 19.4 °F 5.5 °F 10.4 °F 68% 30.37 in 1.8 mi South 15.0 mph 18.4 mph N/A   Clear
9:55 AM 19.4 °F 5.5 °F 10.4 °F 68% 30.36 in 0.5 mi South 15.0 mph 20.7 mph N/A   Unknown
10:15 AM 19.4 °F 6.0 °F 10.4 °F 68% 30.36 in 1.0 mi SSE 13.8 mph - N/A   Clear
10:35 AM 19.4 °F 5.0 °F 8.6 °F 63% 30.34 in 0.5 mi SSE 16.1 mph 24.2 mph N/A   Unknown
10:55 AM 19.4 °F 5.5 °F 6.8 °F 58% 30.33 in 0.8 mi South 15.0 mph - N/A   Unknown
11:15 AM 19.4 °F 5.0 °F 8.6 °F 63% 30.32 in 4.0 mi South 16.1 mph 20.7 mph N/A   Clear
11:35 AM 21.2 °F 7.8 °F 8.6 °F 58% 30.31 in 4.0 mi South 15.0 mph 20.7 mph N/A   Clear
11:55 AM 19.4 °F 5.0 °F 6.8 °F 58% 30.30 in 5.0 mi South 16.1 mph 21.9 mph N/A   Clear
12:15 PM 21.2 °F 7.8 °F 10.4 °F 63% 30.29 in 10.0 mi South 15.0 mph - N/A   Clear
12:35 PM 21.2 °F 7.3 °F 8.6 °F 58% 30.28 in 10.0 mi South 16.1 mph - N/A   Clear
12:55 PM 21.2 °F 8.9 °F 8.6 °F 58% 30.27 in 10.0 mi South 12.7 mph 23.0 mph N/A   Clear
1:15 PM 21.2 °F 8.9 °F 10.4 °F 63% 30.25 in 1.2 mi SSE 12.7 mph 19.6 mph N/A   Clear
1:35 PM 21.2 °F 6.8 °F 10.4 °F 63% 30.23 in 10.0 mi South 17.3 mph - N/A   Clear
1:55 PM 21.2 °F 8.3 °F 10.4 °F 63% 30.23 in 10.0 mi SSE 13.8 mph - N/A   Clear
2:15 PM 21.2 °F 7.8 °F 10.4 °F 63% 30.22 in 10.0 mi SSE 15.0 mph 19.6 mph N/A   Clear
2:35 PM 21.2 °F 8.3 °F 12.2 °F 68% 30.21 in 10.0 mi South 13.8 mph - N/A   Clear
2:55 PM 21.2 °F 9.5 °F 10.4 °F 63% 30.20 in 10.0 mi South 11.5 mph - N/A   Clear
3:15 PM 21.2 °F 8.9 °F 12.2 °F 68% 30.19 in 10.0 mi South 12.7 mph - N/A   Clear
3:35 PM 21.2 °F 7.8 °F 12.2 °F 68% 30.18 in 10.0 mi South 15.0 mph - N/A   Clear
3:55 PM 21.2 °F 8.3 °F 12.2 °F 68% 30.17 in 10.0 mi South 13.8 mph - N/A   Clear
4:15 PM 21.2 °F 7.8 °F 14.0 °F 74% 30.15 in 10.0 mi South 15.0 mph 19.6 mph N/A   Clear
4:35 PM 21.2 °F 11.7 °F 12.2 °F 68% 30.18 in 10.0 mi SSW 8.1 mph - N/A   Clear
4:55 PM 21.2 °F 9.5 °F 12.2 °F 68% 30.16 in 10.0 mi South 11.5 mph - N/A   Clear
5:15 PM 19.4 °F 7.9 °F 12.2 °F 74% 30.15 in 10.0 mi South 10.4 mph - N/A   Clear
5:35 PM 19.4 °F 9.5 °F 12.2 °F 74% 30.13 in 10.0 mi South 8.1 mph - N/A   Clear
5:55 PM 19.4 °F 8.6 °F 14.0 °F 80% 30.11 in 10.0 mi SSE 9.2 mph - N/A   Clear
6:15 PM 19.4 °F 7.9 °F 12.2 °F 74% 30.10 in 10.0 mi South 10.4 mph - N/A   Clear
6:35 PM 19.4 °F 7.9 °F 14.0 °F 80% 30.09 in 10.0 mi South 10.4 mph - N/A   Clear
6:55 PM 19.4 °F 7.9 °F 14.0 °F 80% 30.09 in 10.0 mi South 10.4 mph - N/A   Clear
7:15 PM 19.4 °F 7.9 °F 14.0 °F 80% 30.09 in 10.0 mi South 10.4 mph - N/A   Clear
7:35 PM 19.4 °F 7.9 °F 14.0 °F 80% 30.09 in 10.0 mi South 10.4 mph - N/A   Clear
7:55 PM 19.4 °F 7.9 °F 14.0 °F 80% 30.08 in 10.0 mi South 10.4 mph - N/A   Clear
8:15 PM 19.4 °F 8.6 °F 15.8 °F 86% 30.07 in 10.0 mi South 9.2 mph - N/A   Clear
8:35 PM 19.4 °F 7.9 °F 15.8 °F 86% 30.07 in 10.0 mi South 10.4 mph - N/A   Clear
8:55 PM 19.4 °F 7.2 °F 15.8 °F 86% 30.06 in 10.0 mi South 11.5 mph - N/A   Clear
9:15 PM 19.4 °F 7.2 °F 15.8 °F 86% 30.05 in 10.0 mi South 11.5 mph - N/A   Clear
9:35 PM 19.4 °F 7.2 °F 15.8 °F 86% 30.05 in 10.0 mi South 11.5 mph - N/A   Clear
9:55 PM 19.4 °F 7.2 °F 15.8 °F 86% 30.04 in 10.0 mi South 11.5 mph - N/A   Clear
10:15 PM 19.4 °F 5.0 °F 15.8 °F 86% 30.02 in 10.0 mi South 16.1 mph - N/A   Clear
10:35 PM 21.2 °F 8.3 °F 15.8 °F 80% 30.01 in 10.0 mi South 13.8 mph - N/A   Clear
10:55 PM 21.2 °F 7.3 °F 14.0 °F 74% 30.00 in 10.0 mi South 16.1 mph 20.7 mph N/A   Clear
11:15 PM 21.2 °F 8.9 °F 14.0 °F 74% 29.99 in 10.0 mi South 12.7 mph 18.4 mph N/A   Clear
11:35 PM 21.2 °F 9.5 °F 14.0 °F 74% 29.99 in 10.0 mi South 11.5 mph 17.3 mph N/A   Clear
11:55 PM 21.2 °F 10.1 °F 15.8 °F 80% 29.99 in 10.0 mi South 10.4 mph - N/A   Clear